User: anonymous   Login
Location: Bremen
(53.0793°N, 8.8017°E)
Time: 20:35:34
(UTC+02:00)
Language:

A-11 Canister half - Orbit

View from above orbital plane
View from above orbital plane
View from above satellite
View from above satellite

Ground track
Ground track

The orbit data is extracted from the following two-line orbital elements,

1 00053U 60009E   24109.54260846  .00000054  00000-0  13587-2 0  9999
2 00053  47.2767 258.0254 0098379 261.0572  97.9070 12.17329084839232
Epoch (UTC): 18 April 2024 13:01:21
Eccentricity: 0.0098379
inclination: 47.2767°
perigee height: 1525 km
apogee height: 1683 km
right ascension of ascending node: 258.0254°
argument of perigee: 261.0572°
revolutions per day: 12.17329084
mean anomaly at epoch: 97.9070°
orbit number at epoch: 83923

The dashed part of the orbit path shows where the satellite is in the earth's shadow,  

DLR